Weather reports worldwide

Advertisment
Keswick, United Kingdom (3212): temperature & dewpoint: 06.12.2019 16:00:00 - 12.12.2019 16:00:00 (GMT)Keswick, United Kingdom (3212): temperature -20cm: 06.12.2019 16:00:00 - 12.12.2019 16:00:00 (GMT)Keswick, United Kingdom (3212): wind speed & gusts: 06.12.2019 16:00:00 - 12.12.2019 16:00:00 (GMT)Keswick, United Kingdom (3212): wind direction: 06.12.2019 16:00:00 - 12.12.2019 16:00:00 (GMT)Keswick, United Kingdom (3212): reduced air pressure: 06.12.2019 16:00:00 - 12.12.2019 16:00:00 (GMT)Keswick, United Kingdom (3212): visibility: 06.12.2019 16:00:00 - 12.12.2019 16:00:00 (GMT)Keswick, United Kingdom (3212): precipitation: 06.12.2019 16:00:00 - 12.12.2019 16:00:00 (GMT)
Date & Time tt [°C] td [°C] tt -20cm [°C] ff [km/h] ff [kn] fx [km/h] fx [kn] dd ppp [hPa] vv [km] rr [mm]
12.12.2019 16:00:00 4,0 3,2 - 4 2 - - SSE 976,3 35 0,8
12.12.2019 15:00:00 4,4 3,2 - 4 2 - - E 977,7 17 1,2
12.12.2019 14:00:00 4,9 3,2 - 4 2 - - SE 979,0 10 0,2
12.12.2019 13:00:00 4,9 3,0 - 9 5 - - SE 980,6 45 0,0
12.12.2019 12:00:00 4,3 2,2 - 11 6 - - E 982,5 45 0,0
12.12.2019 11:00:00 4,1 2,0 - 9 5 - - SE 984,4 50 0,0
12.12.2019 10:00:00 3,8 1,7 - 11 6 - - ESE 986,1 17 0,0
12.12.2019 09:00:00 3,5 1,5 5,7 15 8 - - ESE 987,5 45 0,0
12.12.2019 08:00:00 3,5 1,8 - 13 7 - - ESE 988,8 35 0,0
12.12.2019 07:00:00 3,8 1,8 - 9 5 - - E 989,8 40 0,2
12.12.2019 06:00:00 4,7 1,5 - 8 4 - - SE 990,8 23 0,0
12.12.2019 05:00:00 3,6 1,5 - 8 4 - - E 991,9 28 0,2
12.12.2019 04:00:00 4,2 1,4 - 11 6 - - S 993,0 5 0,2
12.12.2019 03:00:00 4,8 0,6 - 11 6 - - WSW 994,1 25 0,0
12.12.2019 02:00:00 4,6 0,9 - 8 4 - - WSW 995,1 28 0,0
12.12.2019 01:00:00 4,9 0,2 - 16 9 - - WSW 996,0 30 0,0
12.12.2019 00:00:00 4,9 0,8 - 15 8 - - WSW 996,5 30 0,0
11.12.2019 23:00:00 5,2 1,4 - 15 8 - - W 996,8 26 0,0
11.12.2019 22:00:00 5,1 1,4 - 9 5 - - W 997,2 27 0,0
11.12.2019 21:00:00 4,7 1,7 - 11 6 - - W 997,4 28 0,0
11.12.2019 20:00:00 4,9 1,4 - 9 5 - - W 997,5 35 0,0
11.12.2019 19:00:00 4,9 1,5 - 15 8 - - W 997,6 30 0,0
11.12.2019 18:00:00 4,4 1,6 - 9 5 - - W 997,3 40 0,0
11.12.2019 17:00:00 4,2 1,8 - 8 4 - - WNW 997,1 40 0,0
11.12.2019 16:00:00 3,9 2,1 - 5 3 - - W 996,7 14 0,4
11.12.2019 15:00:00 4,2 1,0 - 5 3 - - NNW 996,2 45 0,0
11.12.2019 14:00:00 5,5 1,2 - 18 10 - - W 996,0 45 0,2
11.12.2019 13:00:00 5,9 1,5 - 21 11 - - WSW 996,0 45 0,0
11.12.2019 12:00:00 5,2 2,1 - 13 7 - - SW 996,5 35 0,2
11.12.2019 11:00:00 5,5 1,2 - 13 7 - - WSW 997,0 35 0,2
11.12.2019 10:00:00 4,3 2,5 - 16 9 - - WSW 997,4 2,0 1,6
11.12.2019 09:00:00 5,1 2,5 6,2 21 11 50 27 SW 997,7 9 0,6
11.12.2019 08:00:00 6,1 1,7 - 21 11 57 31 WSW 997,5 27 0,4
11.12.2019 07:00:00 6,4 1,4 - 16 9 - - WSW 997,7 28 0,2
11.12.2019 06:00:00 6,6 1,7 - 15 8 - - SW 998,4 20 0,4
11.12.2019 05:00:00 6,4 1,7 - 18 10 - - WSW 999,3 21 0,0
11.12.2019 04:00:00 6,4 1,5 - 22 12 48 26 WSW 999,8 21 0,0
11.12.2019 03:00:00 6,6 1,3 - 18 10 - - W 1000,1 15 0,0
11.12.2019 02:00:00 6,6 2,0 - 22 12 46 25 WSW 1000,1 14 0,0
11.12.2019 01:00:00 6,7 1,9 - 24 13 55 30 WSW 999,9 14 0,0
11.12.2019 00:00:00 6,9 2,1 - 24 13 52 28 W 999,6 15 0,0
10.12.2019 23:00:00 6,8 2,0 - 21 11 55 30 W 998,7 19 0,0
10.12.2019 22:00:00 7,1 2,5 - 34 18 57 31 W 997,6 20 0,0
10.12.2019 21:00:00 6,7 2,7 - 28 15 57 31 W 996,9 30 0,0
10.12.2019 20:00:00 6,8 2,6 - 28 15 63 34 W 995,9 22 0,4
10.12.2019 19:00:00 6,5 3,5 - 21 11 55 30 W 994,4 40 1,2
10.12.2019 18:00:00 6,1 4,6 - 22 12 48 26 W 993,2 8 4,2
10.12.2019 17:00:00 6,2 4,5 - 26 14 68 37 WNW 991,6 2,9 9,4
10.12.2019 16:00:00 8,7 7,4 - 35 19 70 38 W 989,1 2,4 8,0
10.12.2019 15:00:00 13,2 10,9 - 24 13 54 29 SW 988,1 5 7,4
10.12.2019 14:00:00 12,6 10,7 - 21 11 59 32 SSW 990,0 4,6 6,0
10.12.2019 13:00:00 11,6 10,1 - 26 14 52 28 S 992,0 4,1 2,8
10.12.2019 12:00:00 11,1 9,3 - 28 15 59 32 S 994,9 5 1,8
10.12.2019 11:00:00 9,6 8,5 - 15 8 - - SSE 997,4 5 3,4
10.12.2019 10:00:00 8,4 7,0 - 16 9 - - SSE 999,9 10 2,6
10.12.2019 09:00:00 7,1 5,5 6,0 22 12 - - SE 1002,1 8 2,0
10.12.2019 08:00:00 6,4 5,0 - 18 10 - - SE 1004,6 7 2,6
10.12.2019 07:00:00 5,9 4,5 - 22 12 - - ESE 1006,0 11 1,8
10.12.2019 06:00:00 6,2 4,5 - 21 11 52 28 SSE 1008,2 6 0,2
10.12.2019 05:00:00 7,2 3,7 - 18 10 - - SSE 1010,1 22 0,0
10.12.2019 04:00:00 7,5 3,5 - 18 10 - - SSE 1012,0 28 0,0
10.12.2019 03:00:00 7,7 3,8 - 16 9 - - SSE 1013,7 22 0,0
10.12.2019 02:00:00 7,2 3,8 - 13 7 - - SE 1015,2 21 0,0
10.12.2019 01:00:00 7,0 3,6 - 13 7 - - ESE 1016,6 20 0,0
10.12.2019 00:00:00 5,1 2,8 - 8 4 52 28 E 1018,1 27 0,0
09.12.2019 23:00:00 3,3 1,9 - 4 2 - - ENE 1019,1 26 0,0
09.12.2019 22:00:00 2,0 0,7 - 8 4 - - E 1019,8 28 0,0
09.12.2019 21:00:00 0,6 0,1 - 5 3 - - ESE 1020,2 23 0,0
09.12.2019 20:00:00 0,8 0,0 - 5 3 - - E 1020,5 26 0,0
09.12.2019 19:00:00 -0,2 -1,5 - 2 1 - - NNE 1020,5 30 0,0
09.12.2019 18:00:00 0,9 -0,9 - 4 2 - - NE 1020,0 26 0,0
09.12.2019 17:00:00 3,5 0,5 - 4 2 - - WSW 1019,8 29 0,0
09.12.2019 16:00:00 3,8 0,4 - 4 2 - - WNW 1018,7 30 0,0
09.12.2019 15:00:00 5,1 1,0 - 9 5 - - WNW 1017,5 30 0,0
09.12.2019 14:00:00 6,3 1,1 - 13 7 - - WNW 1016,4 30 0,0
09.12.2019 13:00:00 6,4 1,3 - 9 5 - - WNW 1015,8 40 0,0
09.12.2019 12:00:00 6,1 1,9 - 11 6 - - NW 1014,4 30 0,0
09.12.2019 11:00:00 5,5 1,8 - 9 5 - - NW 1013,1 24 0,0
09.12.2019 10:00:00 4,3 1,4 - 5 3 - - N 1011,5 40 0,0
09.12.2019 09:00:00 4,6 1,4 6,7 9 5 - - NNW 1009,3 40 0,0
09.12.2019 08:00:00 5,1 2,4 - 11 6 - - NW 1006,6 30 0,0
09.12.2019 07:00:00 5,0 2,0 - 11 6 - - NW 1004,1 50 0,0
09.12.2019 06:00:00 5,1 2,3 - 15 8 - - NNW 1001,4 50 0,0
09.12.2019 05:00:00 6,1 2,9 - 15 8 - - NW 998,3 50 0,0
09.12.2019 04:00:00 5,9 3,4 - 13 7 - - NNW 995,4 50 0,0
09.12.2019 03:00:00 6,3 4,0 - 13 7 - - WNW 992,6 40 0,0
09.12.2019 02:00:00 6,8 4,4 - 18 10 - - WNW 989,4 45 0,0
09.12.2019 01:00:00 6,7 4,8 - 13 7 - - WNW 986,6 28 0,0
09.12.2019 00:00:00 7,0 4,8 - 13 7 - - W 984,8 22 0,4
08.12.2019 23:00:00 6,9 4,7 - 18 10 - - W 983,6 4,3 0,4
08.12.2019 22:00:00 6,5 4,5 - 18 10 - - W 983,1 27 1,2
08.12.2019 21:00:00 6,5 4,5 - 18 10 48 26 WSW 982,9 21 1,6
08.12.2019 20:00:00 6,3 4,4 - 28 15 54 29 WSW 983,4 8 2,6
08.12.2019 19:00:00 7,2 3,5 - 24 13 59 32 WSW 983,6 16 0,0
08.12.2019 18:00:00 6,8 3,8 - 24 13 57 31 WSW 984,1 17 0,4
08.12.2019 17:00:00 6,9 2,7 - 26 14 52 28 WSW 985,0 23 0,4
08.12.2019 16:00:00 7,0 2,7 - 26 14 54 29 WSW 985,9 20 0,2
08.12.2019 15:00:00 7,4 2,4 - 26 14 61 33 WSW 986,8 20 0,2
08.12.2019 14:00:00 7,4 2,8 - 26 14 54 29 WSW 987,2 19 0,0
08.12.2019 13:00:00 7,6 2,3 - 26 14 52 28 WSW 988,2 22 0,0
08.12.2019 12:00:00 7,5 2,5 - 28 15 61 33 WSW 988,9 18 0,0
08.12.2019 11:00:00 7,4 2,3 - 31 17 72 39 WSW 989,4 21 0,2
08.12.2019 10:00:00 7,4 3,2 - 29 16 57 31 WSW 989,4 18 0,0
08.12.2019 09:00:00 7,8 2,5 7,2 34 18 65 35 WSW 989,7 25 0,0
08.12.2019 08:00:00 7,9 2,7 - 34 18 68 37 WSW 989,9 29 0,0
08.12.2019 07:00:00 7,9 3,3 - 31 17 63 34 WSW 990,2 20 0,2
08.12.2019 06:00:00 8,2 4,0 - 28 15 65 35 W 990,2 19 0,0
08.12.2019 05:00:00 8,6 4,5 - 24 13 48 26 W 989,7 19 0,0
08.12.2019 04:00:00 7,9 5,5 - 22 12 70 38 W 989,3 22 0,4
08.12.2019 03:00:00 9,7 6,7 - 26 14 54 29 W 988,9 22 0,0
08.12.2019 02:00:00 9,6 7,6 - 18 10 67 36 W 988,4 13 3,2
08.12.2019 01:00:00 11,9 10,6 - 22 12 61 33 WSW 988,2 4,2 4,2
08.12.2019 00:00:00 11,4 9,6 - 35 19 68 37 SW 989,6 2,6 4,6
07.12.2019 23:00:00 10,7 8,6 - 18 10 50 27 SSW 990,7 12 6,0
07.12.2019 22:00:00 10,3 8,4 - 22 12 46 25 S 992,8 6 3,6
07.12.2019 21:00:00 10,3 8,7 - 22 12 - - S 995,6 8 0,6
07.12.2019 20:00:00 10,3 8,4 - 15 8 - - S 997,7 12 0,0
07.12.2019 19:00:00 10,5 8,7 - 5 3 - - WNW 999,7 12 0,0
07.12.2019 18:00:00 10,9 9,0 - 8 4 48 26 SSW 1001,3 15 0,0
07.12.2019 17:00:00 11,3 9,0 - 26 14 48 26 SW 1002,4 18 0,0
07.12.2019 16:00:00 10,9 8,9 - 24 13 46 25 SW 1003,5 25 0,6
07.12.2019 15:00:00 9,4 8,0 - 9 5 - - SSE 1004,3 11 0,2
07.12.2019 14:00:00 9,5 7,3 - 4 2 - - ENE 1005,2 22 0,0
07.12.2019 13:00:00 9,9 7,3 - 4 2 - - E 1006,2 29 0,0
07.12.2019 12:00:00 9,3 7,0 - 11 6 - - WSW 1007,3 29 0,0
07.12.2019 11:00:00 9,1 6,7 - 11 6 - - SW 1008,0 27 0,0
07.12.2019 10:00:00 8,9 6,4 - 11 6 - - WSW 1008,2 40 0,0
07.12.2019 09:00:00 8,5 6,1 6,7 8 4 - - W 1008,5 40 0,0
07.12.2019 08:00:00 8,4 6,1 - 13 7 - - W 1008,2 50 0,0
07.12.2019 07:00:00 8,2 6,3 - 13 7 - - W 1008,3 20 0,0
07.12.2019 06:00:00 8,5 5,7 - 16 9 - - W 1008,1 40 0,0
07.12.2019 05:00:00 8,7 6,4 - 22 12 - - W 1007,4 27 0,0
07.12.2019 04:00:00 8,6 6,7 - 13 7 - - W 1006,6 25 0,0
07.12.2019 03:00:00 9,0 6,7 - 13 7 - - WNW 1006,2 24 0,0
07.12.2019 02:00:00 8,7 6,8 - 18 10 - - W 1006,0 23 0,2
07.12.2019 01:00:00 8,7 7,0 - 15 8 - - WNW 1005,3 15 0,0
07.12.2019 00:00:00 8,6 7,3 - 15 8 68 37 WNW 1004,7 9 0,0
06.12.2019 23:00:00 8,6 7,0 - 16 9 - - WNW 1003,7 35 0,0
06.12.2019 22:00:00 8,5 6,9 - 21 11 - - W 1003,0 29 0,0
06.12.2019 21:00:00 8,8 7,1 - 18 10 - - W 1002,7 28 0,0
06.12.2019 20:00:00 9,0 6,9 - 18 10 - - WNW 1002,0 25 0,0
06.12.2019 19:00:00 8,9 7,3 - 21 11 50 27 WNW 1001,2 11 0,0
06.12.2019 18:00:00 8,8 7,1 - 21 11 - - W 999,9 27 0,0
06.12.2019 17:00:00 8,7 6,9 - 16 9 - - WNW 998,5 35 0,0
06.12.2019 16:00:00 8,5 6,9 - 11 6 - - WNW 997,1 40 0,0

tt = temperature
td = dewpoint
tt -20cm = temperature -20cm
ff = wind speed
fx = gusts
dd = wind direction
ppp = reduced air pressure
vv = visibility
rr = precipitation

Next stations